Regional Weather Roundup
Issued by NWS

Home | Current Version | Previous Version | Text Only | Print | Product List | Glossary Off
Versions: 1 2 3 4 5 6 7 8 9 10 11 12 13 14 15 16 17 18 19 20 21 22 23 24 25 26 27

000
ASUS45 KSLC 061310
RWRUT

UTAH REGIONAL WEATHER ROUNDUP
NATIONAL WEATHER SERVICE SALT LAKE CITY UT
700 AM MDT FRI MAY 06 2016

UTZ001>011-023>025-061400-

NORTHERN UTAH

CITY           SKY/WX    TMP DP  RH WIND       PRES   REMARKS
BRIGHAM CITY   CLOUDY    69  31  23 E16       29.80F
HILL AFB       MOCLDY    62  39  42 SE18G24   29.82S
LOGAN          CLOUDY    67  39  35 S9        29.85R
OGDEN          CLOUDY    67  36  31 NE12G18   29.79S
PROVO AIRPORT  MOCLDY    61  43  51 VRB7      29.85R
SALT LAKE CITY CLOUDY    68  38  33 E24G31    29.79R
VERNAL         CLOUDY    57  43  59 CALM      29.94R
WENDOVER       CLOUDY    64  37  36 N16       29.76S
HEBER CITY     DRIZZLE   52  45  76 CALM      29.92R

$$

UTZ012>022-026-027-061400-

SOUTHERN/CENTRAL UTAH

CITY           SKY/WX    TMP DP  RH WIND       PRES   REMARKS
BLANDING       MOCLDY    52  33  49 SE3       30.01R
BRYCE CANYON   CLOUDY    45  19  35 S8        29.96S
CEDAR CITY     CLOUDY    50  29  44 SW6       29.83S
DELTA          CLOUDY    52  30  43 SE8       29.82R
HANKSVILLE     CLOUDY    55  41  58 NE3       29.83R
MILFORD        CLOUDY    51  29  42 SW7       29.81S
MOAB/CYNLANDS  MOCLDY    65  38  36 SE8       29.80R
PRICE          CLOUDY    54  44  69 N14       29.90F
ST GEORGE      CLOUDY    61  27  27 E13       29.77R

$$

REGIONAL REPORTS     COLORADO/ARIZONA

CITY           SKY/WX    TMP DP  RH WIND       PRES   REMARKS
CRAIG, CO      CLOUDY    47  37  68 SE6       30.04F
GRAND JUNCTION MOCLDY    60  40  47 S8        29.88R
RIFLE          PTCLDY    54  40  59 E6        29.99R
MONTROSE       CLOUDY    64  35  34 SE16      29.98R
CORTEZ         CLOUDY    62  29  28 SE16      29.96R
PAGE, AZ       CLOUDY    62  24  23 CALM      29.83R
GRAND CANYON   PTCLDY    33  22  63 E5        29.94R WCI  29
KINGMAN        PTCLDY    58  35  42 SE15      29.79R
FLAGSTAFF      MOCLDY    44  26  49 S17G41    29.97R

$$

REGIONAL REPORTS    NEVADA/IDAHO/WYOMING

CITY           SKY/WX    TMP DP  RH WIND       PRES   REMARKS
LAS VEGAS, NV  MOCLDY    61  40  45 S13G20    29.69R
ELY            CLOUDY    44  31  60 CALM      29.87R
ELKO           CLOUDY    49  41  74 SW5       29.87R
POCATELLO, ID  CLOUDY    58  44  60 E6        29.90R
BURLEY         CLOUDY    52  46  80 SW6       29.87R
EVANSTON, WY   CLOUDY    52  37  56 E9        29.98F
ROCK SPRINGS   CLOUDY    52  36  54 NE3       30.04R
KEMMERER         N/A    N/A N/A N/A SE3       30.06R

$$




USA.gov is the U.S. government's official web portal to all federal, state and local government web resources and services.